Regional Weather Roundup
Issued by NWS

Home | Current Version | Previous Version | Graphics & Text | Print | Product List | Glossary On
Versions: 1 2 3 4 5 6 7 8 9 10 11 12 13 14 15 16 17 18 19 20 21 22 23 24 25 26 27 28 29 30 31 32 33 34 35 36 37 38 39 40 41 42 43 44 45 46 47 48 49 50
000
ASUS43 KMPX 191810
RWRMN
WEATHER ROUNDUP FOR MINNESOTA
NATIONAL WEATHER SERVICE TWIN CITIES/CHANHASSEN MN
1200 PM CST SUN NOV 19 2017


NOTE: "FAIR" INDICATES FEW OR NO CLOUDS BELOW 12,000 FEET WITH NO
SIGNIFICANT WEATHER AND/OR OBSTRUCTIONS TO VISIBILITY. N/A MEANS
CURRENT SKY AND/OR WEATHER CONDITIONS ARE NOT AVAILABLE.

MNZ060>063-068>070-191900-
   Twin Cities Metro

CITY           SKY/WX    TMP DP  RH WIND       PRES   REMARKS
TWIN CITIES    PTSUNNY   31  17  56 VRB5      30.01F WCI  26
6HR MIN TEMP:  18; 6HR MAX TEMP:  31;

ST PAUL        CLOUDY    30  15  53 SW7       30.03F WCI  23
CRYSTAL        CLOUDY    31  14  49 S8        29.98F WCI  23
BLAINE         PTSUNNY   30  16  55 S5        29.99F WCI  25
LAKEVILLE      SUNNY     34  19  55 SW8       30.00F WCI  27
EDEN PRAIRIE   MOSUNNY   33  17  51 SW9       29.99F WCI  25
6HR MIN TEMP:  15; 6HR MAX TEMP:  33;

SOUTH ST PAUL  CLOUDY    31  15  51 SW7       30.01F WCI  25
LAKE ELMO      FAIR      32  16  51 SW8       30.02F WCI  25
$$
MNZ001>005-007-008-013>017-022>024-027-028-191900-
   Northwest Minnesota

CITY           SKY/WX    TMP DP  RH WIND       PRES   REMARKS
BEMIDJI        CLOUDY    23  14  68 S3        29.86F
HALLOCK        SUNNY     23  19  86 S12       29.84F WCI  12
ROSEAU         CLOUDY    21  16  79 CALM      29.84F
WARROAD        CLOUDY    19  12  73 SW5       29.85F WCI  13
THIEF RVR FALL SUNNY     27  19  72 S8        29.85F WCI  19
CROOKSTON      SUNNY     28  19  69 S9        29.86F WCI  20
FOSSTON        SUNNY     30  19  64 SW12      29.86F WCI  21
DETROIT LAKES  SUNNY     32  23  69 SW12      29.87F WCI  23
MOORHEAD       SUNNY     36  23  60 S12       29.87F
PARK RAPIDS    MOSUNNY   31  20  63 S7        29.86F WCI  24
MAHNOMEN       FAIR      32  22  66 SW13      29.85F WCI  22
$$
MNZ006-009>011-018-025>026-191900-
   North Central Minnesota

CITY           SKY/WX    TMP DP  RH WIND       PRES   REMARKS
BAUDETTE       CLOUDY    17  12  80 S5        29.85F WCI  10
FLAG ISLAND    CLOUDY    18  10  73 SW3       29.84F
INTL FALLS     CLOUDY    17   7  64 VRB7      29.87F WCI   8
6HR MIN TEMP:   2; 6HR MAX TEMP:  17;

WASKISH        CLOUDY    23  12  63 CALM      29.86F
BIG FORK       LGT SNOW  19  10  68 SW6       29.88F WCI  11
LONGVILLE      CLOUDY    25  14  63 S3        29.89F
GRAND RAPIDS   CLOUDY    21  12  68 S6        29.92F WCI  13
CRANE LAKE     CLOUDY    16   7  67 CALM      29.90F
ORR            CLOUDY    16   7  67 CALM      29.85F
COOK           CLOUDY    18   7  62 SW7       29.89F WCI   8
WALKER         CLOUDY    25  15  66 SE5       29.87F WCI  19
$$
MNZ012-019>021-037-191900-
   Northeast Minnesota

CITY           SKY/WX    TMP DP  RH WIND       PRES   REMARKS
DULUTH         CLOUDY    19  10  68 W14       29.90F WCI   6
6HR MIN TEMP:   7; 6HR MAX TEMP:  19;

ELY            CLOUDY    18   7  62 W6        29.86F WCI   9
HIBBING        LGT SNOW  17  11  77 S3        29.89F
EVELETH        CLOUDY    18   7  62 W9        29.90F WCI   6
DULUTH HARBOR  CLOUDY    23  12  63 SW13      29.97F WCI  11
TWO HARBORS    CLOUDY    25  12  58 SW8       29.89F WCI  16
SILVER BAY     PTSUNNY   21   9  58 W3        29.88F
GRAND MARAIS     N/A     25   9  50 VRB6      29.89F WCI  18
G MARAIS ARPRT SUNNY     16   3  57 W7        29.80S WCI   6
$$
MNZ029>031-032-039>041-046>048-054>057-064-191900-
   West Central Minnesota

CITY           SKY/WX    TMP DP  RH WIND       PRES   REMARKS
FERGUS FALLS   SUNNY     36  23  60 SW10      29.92F
WHEATON        SUNNY     45  23  42 SW12      29.92F
MORRIS         SUNNY     39  27  60 SW8       29.91F
ALEXANDRIA     PTSUNNY   34  22  61 SW13      29.91F WCI  25
ELBOW LAKE     FAIR      36  24  61 SW12      29.91F HAZE
WADENA         SUNNY     32  21  64 S6        29.88F WCI  26
GLENWOOD       SUNNY     36  25  64 SW9       29.92F
APPLETON       SUNNY     46  25  42 SW14      29.92F
BENSON         SUNNY     39  25  56 W7        29.95F
ORTONVILLE     SUNNY     45  25  45 MISG      29.92F
MADISON        SUNNY     50  25  37 W15       29.94F
WILLMAR        FAIR      39  27  60 SW8       29.96F
$$
MNZ033>034-036-042>043-049>051-058-059-191900-
   Central Minnesota

CITY           SKY/WX    TMP DP  RH WIND       PRES   REMARKS
ST CLOUD       PTSUNNY   31  19  61 SW9       29.95F WCI  23
6HR MIN TEMP:  13; 6HR MAX TEMP:  31;

SAUK CENTRE    FAIR      32  22  66 S8        29.93F WCI  25
PAYNESVILLE    MOSUNNY   36  25  66 S8        29.94F
AITKIN         CLOUDY    25  12  58 S5        29.90F WCI  19
PINE RIVER     CLOUDY    25  16  68 S6        29.92F WCI  18
BRAINERD       MOSUNNY   30  16  56 SW9       29.91F WCI  22
STAPLES        SUNNY     30  18  59 S8        29.89F WCI  23
LONG PRAIRIE   PTSUNNY   30  21  69 S9        29.93F WCI  22
LITTLE FALLS   CLOUDY    30  14  51 S5        29.94F WCI  25
LITCHFIELD     SUNNY     37  25  60 SW6       29.96F
BUFFALO        PTSUNNY   32  19  59 S6        29.98F WCI  26
MAPLE LAKE     CLOUDY    35  23  61 SW5       29.98F WCI  31
HUTCHINSON     SUNNY     38  25  59 S8        29.98F
$$
MNZ037-044-045-052-053-191900-
   East Central Minnesota

CITY           SKY/WX    TMP DP  RH WIND       PRES   REMARKS
PRINCETON      MOSUNNY   34  18  51 S8        29.96F WCI  27
MORA           CLOUDY    30  18  59 SW5       29.97F WCI  25
CAMBRIDGE      PTSUNNY   32  18  55 S7        29.97F WCI  26
RUSH CITY      CLOUDY    29  14  52 SW6       29.98F WCI  23
MOOSE LAKE     CLOUDY    25  14  63 SW7       29.92F WCI  17
HINCKLEY       MOCLDY    28  16  59 S6        29.96F WCI  22
CLOQUET        CLOUDY    21   9  58 SW6       29.91F WCI  14
MCGREGOR       CLOUDY    27  14  59 S7        29.92F WCI  19
$$
MNZ071>073-080-081-089-090-097-098-191900-
   Southwest Minnesota

CITY           SKY/WX    TMP DP  RH WIND       PRES   REMARKS
MONTEVIDEO     SUNNY     45  28  53 W6        29.95F
GRANITE FALLS  SUNNY     45  28  52 SW10      29.97F
CANBY          SUNNY     46  25  43 SW17      29.96F
MARSHALL       SUNNY     46  25  43 W21       29.95F
REDWOOD FALLS  SUNNY     44  23  43 SW12      29.97F
OLIVIA         SUNNY     41  27  56 SW12      29.96F
PIPESTONE      SUNNY     43  27  52 W12       29.98F
WINDOM         SUNNY     45  25  45 SW13      29.99F
WORTHINGTON    SUNNY     42  25  50 SW17      30.00F
JACKSON        SUNNY     43  25  49 SW12      30.01F
SLAYTON        SUNNY     43  26  51 SW20G25   29.99F
$$
MNZ065>067-074>077-082>085-091>093-191900-
   South Central Minnesota

CITY           SKY/WX    TMP DP  RH WIND       PRES   REMARKS
MANKATO        SUNNY     36  21  54 SW14      30.02F
NEW ULM        SUNNY     41  21  45 CALM      29.99F
ST JAMES       SUNNY     45  25  45 SW18      30.00F
FAIRMONT       SUNNY     41  23  48 SW14      30.02F
GLENCOE        SUNNY     37  24  59 SW9       29.98F
FARIBAULT      SUNNY     34  19  55 S10       30.02F WCI  26
OWATONNA       SUNNY     34  21  60 SW13      30.02F WCI  25
WASECA         SUNNY     36  23  60 SW12      30.04F
ALBERT LEA     SUNNY     34  19  55 SW8       30.04F WCI  27
$$
MNZ078>079-086>088-094>096-191900-
   Southeast Minnesota

CITY           SKY/WX    TMP DP  RH WIND       PRES   REMARKS
ROCHESTER      SUNNY     31  19  61 SW10      30.03F WCI  22
6HR MIN TEMP:  15; 6HR MAX TEMP:  32;

RED WING       CLOUDY    30  10  43 CALM      30.02F
STANTON        SUNNY     33  19  56 SW9       30.00F WCI  25
DODGE CENTER   SUNNY     30  18  59 SW12      30.02F WCI  21
WINONA         SUNNY     32  14  47 W5        30.05F WCI  27
AUSTIN         MOSUNNY   30  18  59 SW10      30.03F WCI  21
PRESTON        SUNNY     30  16  55 W9        30.04F WCI  22
$$
ABBREVIATIONS USED IN REMARKS
   TC - TEMPERATURES IN CELSIUS
  WCI - WIND CHILL INDEX
   HX - HEAT INDEX
  VSB - VISIBILITY
$$



USA.gov is the U.S. government's official web portal to all federal, state and local government web resources and services.